User: anonymous   Login
Location: Unspecified
(0.0000°N, 0.0000°E)
Time: 10:47:22
(UTC+00:00)
Language:

Skynet 4D - Orbit

View from above orbital plane
View from above orbital plane
View from above satellite
View from above satellite

Ground track
Ground track

The orbit data is extracted from the following two-line orbital elements,

1 25134U 98002A   17202.75088233 +.00000043 +00000-0 +00000-0 0  9999
2 25134 010.5603 031.0750 0003696 105.3127 121.1926 00.99151669071120
Epoch (UTC): 21 July 2017 18:01:16
Eccentricity: 0.0003696
inclination: 10.5603°
perigee height: 36087 km
apogee height: 36119 km
right ascension of ascending node: 31.0750°
argument of perigee: 105.3127°
revolutions per day: 0.99151669
mean anomaly at epoch: 121.1926°
orbit number at epoch: 7112

The dashed part of the orbit path shows where the satellite is in the earth's shadow,  

DLR